Flag for Belarus Weather past 2 weeks in Minsk, Belarus

Now
72 °F

Clear.


Feels Like: 77 °F
Forecast: 65 / 91 °F
Wind: 6 mph from Southeast

Location: Minsk

Current Time: Aug 1, 2014 at 12:52:39 AM

Latest Report: Aug 1, 2014 at 12:00 AM


Visibility: 10 mi

Pressure: 29.89 "Hg

Humidity: 53%

Dew point: 54 °F

Location of MinskLocation

Historic Weather in Minsk — Graph

°F

Minsk temperature yesterday

Maximum temperature yesterday: 91 °F (at 2:30 PM)
Minimum temperature yesterday: 59 °F (at 5:00 AM)
Average temperature yesterday: 77 °F

Past Weeks' High & Low Weather Summary

 TemperatureHumidityPressure
High91 °F (Jul 31, 2:30 PM)100% (Jul 17, 1:00 AM)30.18 "Hg (Jul 17, 1:00 AM)
Low50 °F (Jul 24, 5:30 AM)20% (Jul 29, 4:30 PM)29.86 "Hg (Jul 21, 6:01 AM)
Average71 °F62%30.04 "Hg
* Reported Jul 16 11:00 PM — Jul 31 11:30 PM, Minsk, Weather by CustomWeather, © 2014

Note: Actual official high and low records may vary slightly from our data, if they occured in-between our weather recording intervals... More about our weather records

Advertising

Minsk weather history for previous 24 hours

 ConditionsComfort  
Time TempWeatherWind HumidityBarometerVisibility
11:30 PM
Jul 31
73 °FClear.3 mph50%29.89 "Hg10 mi
11:00 PM77 °FClear.1 mph42%29.89 "Hg10 mi
10:30 PM75 °FClear.3 mph47%29.89 "Hg10 mi
10:00 PM72 °FSunny.3 mph57%29.89 "Hg10 mi
9:30 PM75 °FSunny.3 mph50%29.89 "Hg10 mi
9:00 PM77 °FSunny.3 mph44%29.89 "Hg10 mi
8:30 PM81 °FSunny.No wind37%29.89 "Hg10 mi
8:00 PM84 °FSunny.3 mph31%29.86 "Hg10 mi
7:30 PM86 °FSunny.3 mph27%29.86 "Hg10 mi
7:00 PM88 °FSunny.6 mph25%29.86 "Hg10 mi
6:30 PM88 °FPassing clouds.6 mph25%29.86 "HgN/A
6:00 PM90 °FPassing clouds.8 mph24%29.86 "HgN/A
5:30 PM90 °FPassing clouds.8 mph24%29.89 "HgN/A
5:00 PM90 °FPassing clouds.10 mph24%29.89 "HgN/A
4:30 PM90 °FPassing clouds.8 mph24%29.89 "HgN/A
4:00 PM90 °FPassing clouds.13 mph22%29.89 "HgN/A
3:30 PM91 °FPassing clouds.13 mph21%29.89 "HgN/A
3:00 PM90 °FPassing clouds.13 mph22%29.89 "HgN/A
2:30 PM91 °FPassing clouds.15 mph21%29.89 "HgN/A
2:00 PM90 °FBroken clouds.13 mph24%29.92 "HgN/A
1:30 PM90 °FBroken clouds.15 mph24%29.92 "HgN/A
1:00 PM88 °FBroken clouds.10 mph27%29.92 "HgN/A
12:30 PM88 °FPartly sunny.13 mph25%29.92 "HgN/A
12:00 PM88 °FPassing clouds.13 mph27%29.92 "HgN/A
11:30 AM86 °FPassing clouds.10 mph29%29.92 "HgN/A
11:00 AM84 °FPassing clouds.10 mph31%29.92 "HgN/A
10:30 AM82 °FSunny.13 mph32%29.92 "Hg10 mi
10:00 AM81 °FPassing clouds.8 mph37%29.95 "HgN/A
9:30 AM79 °FSunny.8 mph39%29.95 "Hg10 mi
9:00 AM77 °FSunny.6 mph42%29.95 "Hg10 mi
8:30 AM75 °FSunny.8 mph44%29.95 "Hg10 mi
8:00 AM73 °FPassing clouds.6 mph47%29.95 "HgN/A
7:30 AM68 °FSunny.3 mph60%29.95 "Hg10 mi
7:00 AM66 °FSunny.3 mph60%29.95 "Hg10 mi
6:30 AM61 °FSunny.6 mph72%29.95 "Hg10 mi
6:00 AM61 °FClear.6 mph72%29.95 "Hg10 mi
5:30 AM61 °FClear.6 mph72%29.92 "Hg10 mi
5:00 AM59 °FClear.3 mph72%29.92 "Hg10 mi
4:30 AM63 °FPassing clouds.6 mph64%29.92 "HgN/A
4:00 AM63 °FClear.3 mph64%29.92 "Hg10 mi
3:30 AM70 °FClear.3 mph50%29.95 "Hg10 mi
3:00 AM70 °FPassing clouds.3 mph50%29.95 "HgN/A
2:30 AM72 °FPassing clouds.6 mph44%29.95 "HgN/A
2:00 AM70 °FClear.6 mph50%29.92 "Hg10 mi
1:30 AM63 °FClear.6 mph64%29.95 "Hg10 mi
1:00 AM61 °FClear.6 mph72%29.92 "Hg10 mi
12:30 AM63 °FClear.6 mph68%29.92 "Hg10 mi
12:00 AM63 °FClear.6 mph68%29.92 "Hg10 mi
Weather by CustomWeather, © 2014

See weather overviewHow to use our weather pages